Flag for Brazil Weather past 2 weeks in Teresina, Piauí, Brazil

Now
77 °F

Clear.


Feels Like: 78 °F
Forecast: 75 / 92 °F
Wind: 5 mph from Northwest

Location: Teresina Aeroporto

Current Time: Jan 25, 2015 at 1:38:40 AM

Latest Report: Jan 25, 2015 at 1:00 AM


Visibility: 10 mi

Pressure: 29.86 "Hg

Humidity: 94%

Dew point: 75 °F

Location of TeresinaLocation

Historic Weather in Teresina — Graph

°F

Teresina temperature yesterday

Maximum temperature yesterday: 97 °F (at 5:00 PM)
Minimum temperature yesterday: 77 °F (at 3:00 AM)
Average temperature yesterday: 84 °F

Past Weeks' High & Low Weather Summary

 TemperatureHumidityPressure
High99 °F (Jan 16, 5:00 PM)100% (Jan 22, 2:00 AM)29.95 "Hg (Jan 22, 2:00 AM)
Low72 °F (Jan 22, 2:00 AM)33% (Jan 16, 5:00 PM)29.74 "Hg (Jan 13, 4:00 PM)
Average83 °F69%29.85 "Hg
* Reported Midnight between Jan 9 and Jan 10 — Midnight between Jan 24 and Jan 25, Teresina, Weather by CustomWeather, © 2014

Note: Actual official high and low records may vary slightly from our data, if they occured in-between our weather recording intervals... More about our weather records

Advertising

Teresina weather history for previous 24 hours

 ConditionsComfort  
Time TempWeatherWind HumidityBarometerVisibility
12:00 AM
Jan 25
77 °FPartly cloudy.5 mph94%29.86 "HgN/A
11:00 PM
Jan 24
77 °FThunderstorms. Passing clouds.6 mph94%29.86 "HgN/A
10:00 PM79 °FThunderstorms. Partly cloudy.8 mph84%N/AN/A
9:00 PM84 °FPartly cloudy.No wind58%29.86 "HgN/A
8:00 PM86 °FPassing clouds.6 mph55%29.83 "HgN/A
7:00 PM86 °FPassing clouds.5 mph55%29.77 "HgN/A
6:00 PM86 °FLight rain. Broken clouds.7 mph52%29.77 "Hg6 mi
5:00 PM97 °FPartly sunny.2 mph37%29.74 "HgN/A
4:00 PM95 °FScattered clouds.7 mph39%29.74 "HgN/A
3:00 PM93 °FPartly sunny.6 mph39%29.77 "HgN/A
2:00 PM91 °FScattered clouds.3 mph41%29.80 "HgN/A
1:00 PM91 °FPartly sunny.5 mph44%29.83 "HgN/A
12:00 PM91 °FPartly sunny.5 mph44%29.86 "HgN/A
11:00 AM90 °FScattered clouds.8 mph49%29.89 "HgN/A
10:00 AM88 °FPassing clouds.7 mph52%29.89 "HgN/A
9:00 AM84 °FPassing clouds.6 mph66%29.89 "HgN/A
8:00 AM81 °FScattered clouds.5 mph74%29.89 "HgN/A
7:00 AM79 °FSunny.3 mph84%29.86 "Hg10 mi
6:00 AM77 °FSunny.No wind89%29.86 "Hg10 mi
5:00 AM77 °FClear.2 mph94%29.86 "Hg10 mi
4:00 AM77 °FClear.2 mph89%29.86 "Hg10 mi
3:00 AM77 °FClear.3 mph89%29.86 "Hg10 mi
2:00 AM79 °FClear.5 mph84%29.86 "Hg10 mi
1:00 AM79 °FClear.6 mph84%29.89 "Hg10 mi
Weather by CustomWeather, © 2014

See weather overviewHow to use our weather pages